[[{"header":{"parameterUnit":"m.s-1","parameterCategory":1,"la1":30.2991,"la2":30.254,"lo1":-89.0895,"lo2":-89.0444,"dy":0.0017,"dx":0.0017,"nx":28,"ny":28,"refTime":"2024-12-16T03:00:00:Z","depth":0,"parameterNumber":2,"parameterNumberName":"U-component_of_WINDS"},"data":[0,0,0,0,0,0,0,0,0,0,0,0,0,0,0,0,0,0,0,0,0,0,0,0,0,0,0,0,0,0,0,0,0,0,0,0,0,0,0,0,0,0,0,0,0,0,0,0,0,0,0,0,0,0,0,0,0,0,-2.6614,-2.6614,0,-2.6581,-2.6581,-2.6581,-2.6505,-2.6503,-2.6502,-2.65,-2.6469,-2.647,-2.647,0,0,0,0,0,0,0,0,0,0,0,0,0,-2.6614,-2.6614,-2.6614,-2.6614,-2.6613,-2.6581,-2.6581,-2.658,-2.6505,-2.6503,-2.6501,-2.6499,-2.6469,-2.6469,-2.647,0,0,0,0,0,0,0,0,0,0,0,0,0,-2.6601,-2.6614,-2.6614,-2.6572,-2.6567,-2.6581,-2.6581,-2.658,-2.6505,-2.6503,-2.6501,-2.6499,-2.6468,-2.6469,-2.647,-2.6523,0,0,-2.6473,-2.6474,0,0,0,0,0,0,0,0,-2.6602,-2.6601,-2.6578,-2.6575,-2.657,-2.6545,-2.6569,-2.6561,-2.6506,-2.6529,-2.65,-2.6497,-2.6496,-2.6495,-2.6494,-2.6522,-2.6521,-2.6473,-2.6474,-2.6474,-2.6475,0,0,0,0,0,0,0,-2.6603,-2.6602,-2.6601,-2.6578,-2.6573,-2.6555,-2.6551,-2.6567,-2.6526,-2.6527,-2.6521,-2.6518,-2.6493,-2.6493,-2.6493,-2.652,-2.6473,-2.6474,-2.6475,-2.6475,-2.6591,-2.6593,0,0,0,0,0,0,-2.6609,-2.6603,-2.6602,-2.66,-2.658,-2.6557,-2.6552,-2.6555,-2.6526,-2.6519,-2.652,-2.6515,-2.6493,-2.6492,-2.6491,-2.6551,-2.6474,-2.6475,-2.6476,-2.6589,-2.6592,-2.6594,0,0,0,0,0,0,-2.661,-2.661,-2.6603,-2.66,-2.6598,-2.656,-2.6564,-2.6556,-2.6555,-2.6521,-2.6514,-2.6527,-2.6491,-2.649,-2.6516,-2.6549,-2.6476,-2.6476,-2.6586,-2.6589,-2.6593,-2.6673,0,0,0,0,0,0,-2.661,-2.661,-2.663,-2.6601,-2.6598,-2.6628,-2.6566,-2.6557,-2.6557,-2.6549,-2.6526,-2.6519,-2.6489,-2.6515,-2.6517,-2.6549,-2.6477,-2.6582,-2.6587,-2.6592,-2.6667,-2.6679,-2.6689,0,0,0,0,0,-2.661,-2.6654,-2.6631,-2.6631,-2.6621,-2.663,-2.6629,-2.6592,-2.656,-2.6579,-2.6557,-2.652,-2.6546,-2.6518,-2.652,-2.6553,-2.658,-2.6586,-2.6591,-2.6662,-2.6676,-2.6689,0,0,0,0,0,0,-2.6687,-2.6649,-2.6623,-2.6659,-2.6648,-2.6617,-2.664,-2.6608,-2.6607,-2.66,-2.6556,-2.6551,-2.6583,-2.6571,-2.6541,-2.6603,-2.6557,-2.6563,-2.661,-2.6623,-2.6634,-2.6636,-2.6478,0,0,0,0,0,-2.6709,-2.6718,-2.6684,-2.6719,-2.6715,-2.6679,-2.6681,-2.6654,-2.6642,-2.6637,-2.6617,-2.6607,-2.6613,-2.6618,-2.6621,-2.6665,-2.6659,-2.6689,-2.67,-2.6709,-2.6715,-2.6738,-2.6751,-2.6613,-2.6613,-2.6613,0,0,-2.6752,-2.6733,-2.6741,-2.6734,-2.6723,-2.6735,-2.6676,-2.6691,-2.6699,-2.664,-2.6663,-2.6648,-2.6634,-2.667,-2.6684,-2.666,-2.6752,-2.6716,-2.6724,-2.6724,-2.6745,-2.6758,-2.6769,-2.6617,-2.6616,-2.6615,0,0,-2.6838,-2.6824,-2.6851,-2.6841,-2.6824,-2.68,-2.6807,-2.6781,-2.6769,-2.6792,-2.6747,-2.6758,-2.6768,-2.676,-2.6758,-2.6842,-2.6808,-2.6844,-2.6901,-2.6924,-2.6935,-2.6944,-2.6975,-2.6986,-2.685,-2.6851,-2.6851,0,-2.6894,-2.6909,-2.6869,-2.6887,-2.6885,-2.6832,-2.686,-2.6852,-2.6838,-2.6839,-2.6812,-2.6825,-2.6812,-2.6845,-2.6865,-2.6865,-2.6872,-2.6846,-2.6937,-2.6946,-2.6954,-2.6982,-2.6994,-2.6855,-2.6855,-2.6854,-2.6854,0,-2.698,-2.6991,-2.7016,-2.7003,-2.7004,-2.7027,-2.6991,-2.6997,-2.6971,-2.695,-2.6974,-2.6957,-2.6956,-2.6962,-2.6936,-2.6992,-2.6977,-2.6945,-2.6897,-2.6972,-2.6998,-2.7008,-2.6862,-2.686,-2.6859,-2.6857,0,0,-2.7112,-2.7077,-2.7087,-2.708,-2.7059,-2.7067,-2.7089,-2.7087,-2.7094,-2.7086,-2.7103,-2.7114,-2.7084,-2.7081,-2.7054,-2.7074,-2.7142,-2.7039,-2.7038,-2.7058,-2.7203,-2.7228,-2.7241,-2.712,-2.7122,-2.7123,-2.7204,0,-2.7192,-2.7225,-2.719,-2.723,-2.7241,-2.7191,-2.7209,-2.7199,-2.718,-2.7187,-2.7167,-2.7176,-2.7135,-2.7133,-2.7151,-2.713,-2.7171,-2.7124,-2.7136,-2.7137,-2.714,-2.7254,-2.728,-2.7357,-2.7214,-2.7216,-2.7217,0,-2.7289,-2.7286,-2.7327,-2.7304,-2.7307,-2.7324,-2.732,-2.7327,-2.7315,-2.73,-2.7298,-2.7265,-2.7285,-2.724,-2.7267,-2.7236,-2.7239,-2.723,-2.7232,-2.7231,-2.7181,-2.7256,-2.738,-2.7392,-2.7232,-2.7231,-2.723,0,-2.7381,-2.7387,-2.7413,-2.7409,-2.7382,-2.7396,-2.7385,-2.737,-2.7372,-2.737,-2.737,-2.7371,-2.7371,-2.7372,-2.7341,-2.731,-2.7373,-2.7324,-2.7361,-2.7362,-2.7376,-2.7375,-2.7502,-2.7379,-2.7379,-2.7379,-2.7378,0,-2.7473,-2.7501,-2.7454,-2.7469,-2.7499,-2.7459,-2.749,-2.7475,-2.7462,-2.7475,-2.7432,-2.7445,-2.7403,-2.7412,-2.7388,-2.7415,-2.7416,-2.7405,-2.7398,-2.7408,-2.741,-2.7409,-2.7403,-2.7382,-2.7381,-2.738,-2.738,0,-2.7581,-2.755,-2.7575,-2.7548,-2.7542,-2.7565,-2.7542,-2.7556,-2.7535,-2.7552,-2.7553,-2.7521,-2.753,-2.7499,-2.7502,-2.7486,-2.7525,-2.751,-2.7529,-2.7524,-2.7563,-2.756,-2.7694,-2.7709,-2.7577,-2.7578,-2.7579,0,-2.7641,-2.7661,-2.7636,-2.7641,-2.7633,-2.7642,-2.7644,-2.7606,-2.761,-2.7598,-2.7614,-2.7618,-2.762,-2.7636,-2.7613,-2.7616,-2.76,-2.7647,-2.76,-2.761,-2.7601,-2.76,-2.7602,-2.7657,-2.7658,-2.7659,-2.7661,0,-2.7752,-2.7736,-2.774,-2.7739,-2.7742,-2.7739,-2.7733,-2.774,-2.77,-2.7707,-2.7714,-2.7716,-2.7719,-2.7725,-2.7723,-2.7713,-2.7681,-2.7676,-2.7684,-2.7695,-2.7705,-2.77,-2.7555,-2.7672,-2.7671,-2.767,-2.767,-2.7669,-2.7838,-2.7853,-2.7838,-2.7844,-2.7836,-2.7832,-2.7844,-2.7825,-2.783,-2.783,-2.7808,-2.782,-2.7809,-2.7802,-2.7796,-2.7806,-2.7784,-2.7797,-2.78,-2.7804,-2.781,-2.7704,-2.7806,-2.7805,-2.7805,-2.7805,-2.7804,0,-2.7946,-2.7935,-2.794,-2.7934,-2.7938,-2.7907,-2.79,-2.7906,-2.7917,-2.7909,-2.7912,-2.7921,-2.7927,-2.7905,-2.7908,-2.792,-2.7905,-2.7922,-2.792,-2.7919,-2.7829,-2.7822,-2.7934,-2.7934,-2.7934,-2.7934,-2.7934,-2.7934,-2.8003,-2.8028,-2.8011,-2.8031,-2.8019,-2.8031,-2.8029,-2.8026,-2.8019,-2.8031,-2.8035,-2.8021,-2.8008,-2.8009,-2.8013,-2.8007,-2.801,-2.8032,-2.802,-2.7937,-2.7925,-2.7913,-2.7905,-2.8033,-2.8033,-2.8108,-2.8109,-2.811]},{"header":{"parameterUnit":"m.s-1","parameterCategory":1,"la1":30.2991,"la2":30.254,"lo1":-89.0895,"lo2":-89.0444,"dy":0.0017,"dx":0.0017,"nx":28,"ny":28,"refTime":"2024-12-16T03:00:00:Z","depth":0,"parameterNumber":3,"parameterNumberName":"V-component_of_WINDS"},"data":[0,0,0,0,0,0,0,0,0,0,0,0,0,0,0,0,0,0,0,0,0,0,0,0,0,0,0,0,0,0,0,0,0,0,0,0,0,0,0,0,0,0,0,0,0,0,0,0,0,0,0,0,0,0,0,0,0,0,0.1302,0.1302,0,0.1319,0.132,0.132,0.1352,0.1352,0.1353,0.1354,0.1369,0.1369,0.1369,0,0,0,0,0,0,0,0,0,0,0,0,0,0.1297,0.1297,0.1302,0.1302,0.1302,0.1319,0.132,0.132,0.1352,0.1352,0.1353,0.1354,0.1369,0.1369,0.1369,0,0,0,0,0,0,0,0,0,0,0,0,0,0.1305,0.1296,0.1302,0.132,0.1322,0.1319,0.132,0.132,0.1352,0.1352,0.1353,0.1354,0.1369,0.1369,0.1369,0.1348,0,0,0.1368,0.1368,0,0,0,0,0,0,0,0,0.1304,0.1305,0.1318,0.1319,0.1321,0.1334,0.1323,0.1329,0.1351,0.134,0.1354,0.1355,0.1357,0.1357,0.1359,0.1349,0.135,0.1368,0.1368,0.1368,0.1368,0,0,0,0,0,0,0,0.1304,0.1304,0.1309,0.1318,0.132,0.1328,0.133,0.1325,0.1343,0.1341,0.1344,0.1346,0.1358,0.1359,0.1359,0.135,0.1368,0.1368,0.1368,0.1367,0.1328,0.1327,0,0,0,0,0,0,0.1301,0.1304,0.1308,0.1309,0.1315,0.1327,0.133,0.1329,0.1343,0.1346,0.1345,0.1347,0.1359,0.1359,0.136,0.1339,0.1368,0.1367,0.1367,0.1329,0.1328,0.1327,0,0,0,0,0,0,0.13,0.1301,0.1308,0.1307,0.1309,0.1326,0.1326,0.1329,0.133,0.1346,0.1349,0.1342,0.136,0.136,0.1352,0.134,0.1367,0.1367,0.133,0.1328,0.1327,0.1296,0,0,0,0,0,0,0.13,0.13,0.1293,0.1307,0.1309,0.1299,0.1325,0.1329,0.133,0.1333,0.1344,0.1347,0.136,0.1352,0.1352,0.134,0.1367,0.1331,0.1329,0.1327,0.1298,0.1293,0.129,0,0,0,0,0,0.13,0.1282,0.1292,0.1292,0.1299,0.1298,0.1299,0.1316,0.1329,0.1321,0.1332,0.1347,0.1341,0.1351,0.1351,0.1339,0.1332,0.133,0.1328,0.13,0.1294,0.129,0,0,0,0,0,0,0.1264,0.1284,0.1295,0.1281,0.1288,0.1304,0.1295,0.1309,0.1311,0.1314,0.1333,0.1336,0.1325,0.1331,0.1341,0.1321,0.1339,0.1337,0.1318,0.1313,0.1309,0.1308,0.1367,0,0,0,0,0,0.1255,0.1252,0.127,0.1256,0.1259,0.1276,0.1276,0.1289,0.1296,0.1299,0.1308,0.1314,0.1315,0.1314,0.1315,0.1299,0.1303,0.1291,0.1287,0.1283,0.1281,0.1276,0.1271,0.132,0.132,0.132,0,0,0.1235,0.1246,0.1243,0.1249,0.1256,0.1254,0.1278,0.1274,0.1273,0.1298,0.1291,0.1299,0.1307,0.1296,0.1291,0.13,0.1269,0.1281,0.1278,0.1278,0.1273,0.1269,0.1265,0.1319,0.1319,0.1319,0,0,0.1198,0.1205,0.1196,0.1203,0.1213,0.1226,0.1223,0.1238,0.1244,0.1238,0.1258,0.1256,0.1255,0.1261,0.1264,0.1233,0.1248,0.1233,0.1211,0.1206,0.1202,0.1199,0.1189,0.1186,0.1231,0.1231,0.1231,0,0.1172,0.117,0.1189,0.1185,0.1188,0.1212,0.1204,0.1209,0.1219,0.122,0.1231,0.1232,0.1239,0.1231,0.1224,0.1225,0.1224,0.1232,0.1201,0.1198,0.1195,0.1187,0.1183,0.1229,0.1229,0.1229,0.123,0,0.1138,0.1136,0.1127,0.1138,0.1141,0.1134,0.1153,0.1152,0.1165,0.1177,0.1172,0.1182,0.1186,0.1185,0.1196,0.1179,0.1185,0.1198,0.1216,0.1189,0.1181,0.1178,0.1226,0.1227,0.1228,0.1228,0,0,0.1077,0.1101,0.1098,0.1104,0.1119,0.1118,0.1114,0.1119,0.112,0.1126,0.1123,0.1124,0.1137,0.114,0.1153,0.1148,0.1126,0.1163,0.1163,0.1157,0.1109,0.11,0.1095,0.1136,0.1135,0.1135,0.1109,0,0.1044,0.1038,0.1057,0.1046,0.1046,0.1071,0.1067,0.1076,0.1087,0.1089,0.1101,0.1101,0.1118,0.1121,0.1117,0.1129,0.1117,0.1131,0.1134,0.1134,0.1132,0.1091,0.108,0.1056,0.1106,0.1105,0.1105,0,0.1004,0.1011,0.1001,0.1019,0.102,0.1016,0.1025,0.1025,0.1037,0.1046,0.1051,0.1067,0.1064,0.1082,0.108,0.1089,0.1092,0.1098,0.1098,0.1099,0.1118,0.1092,0.1048,0.1044,0.11,0.1101,0.1101,0,0.0963,0.0969,0.0965,0.0969,0.099,0.0987,0.0996,0.1008,0.1012,0.1019,0.1022,0.1028,0.1031,0.1036,0.1054,0.1065,0.105,0.1068,0.1057,0.1057,0.1053,0.1053,0.1009,0.1053,0.1053,0.1053,0.1053,0,0.0924,0.0917,0.0947,0.0944,0.0938,0.096,0.0953,0.0964,0.0976,0.0976,0.0997,0.0997,0.102,0.1022,0.1036,0.1033,0.1034,0.1042,0.1045,0.104,0.1039,0.1042,0.1044,0.1052,0.1053,0.1053,0.1053,0,0.0876,0.0896,0.0893,0.0914,0.0919,0.0914,0.0932,0.0931,0.0944,0.0945,0.0946,0.0967,0.0971,0.099,0.0998,0.1007,0.1,0.1007,0.0996,0.0999,0.0988,0.0989,0.0945,0.0941,0.0986,0.0986,0.0985,0,0.085,0.0846,0.0868,0.087,0.0879,0.0882,0.0886,0.0909,0.0912,0.0927,0.0924,0.0931,0.0937,0.0943,0.0959,0.0966,0.0974,0.0958,0.0975,0.0971,0.0975,0.0976,0.0976,0.0954,0.0954,0.0953,0.0953,0,0.0803,0.0814,0.082,0.083,0.0835,0.0843,0.0853,0.0854,0.0879,0.0882,0.0888,0.0893,0.0903,0.091,0.092,0.0929,0.0945,0.0948,0.0946,0.094,0.0935,0.0939,0.0988,0.0948,0.0949,0.0949,0.0949,0.0949,0.0766,0.0765,0.0781,0.0788,0.0798,0.0807,0.0808,0.0823,0.0829,0.084,0.0853,0.0857,0.0871,0.0887,0.0895,0.0899,0.0908,0.0905,0.0904,0.0903,0.0901,0.0934,0.0901,0.0901,0.0901,0.0902,0.0902,0,0.0722,0.0734,0.074,0.0754,0.076,0.0777,0.0789,0.0793,0.0797,0.0809,0.0816,0.0824,0.0831,0.0849,0.0858,0.0859,0.0866,0.086,0.0861,0.0863,0.0892,0.0894,0.0854,0.0854,0.0854,0.0854,0.0854,0.0854,0.0699,0.0698,0.0711,0.0716,0.0729,0.0735,0.0741,0.075,0.0761,0.0769,0.0776,0.0788,0.0803,0.0814,0.0822,0.0827,0.083,0.0821,0.0829,0.0856,0.086,0.0865,0.0866,0.0822,0.0822,0.08,0.0799,0.0799]}]]